Springfield, MO

8:29 AM CDT on May 30, 2017 (GMT -0500)
Springfield-Branson Regional

Weather History for KSGF - June, 2014

Change the Weather History Date:

Monday, June 9, 2014

  Actual Average Record
Temperature  
Mean Temperature 66 °F 72 °F  
Max Temperature 70 °F 82 °F 97 °F (1981)
Min Temperature 61 °F 62 °F 45 °F (1978)
Degree Days  
Heating Degree Days 0 0  
Month to date heating degree days 0 7  
Since 1 June heating degree days 0 7  
Since 1 July heating degree days 5020 4576  
Cooling Degree Days 1 7  
Month to date cooling degree days 71 58  
Year to date cooling degree days 264 173  
Since 1 June cooling degree days 71 58  
Growing Degree Days 16 (Base 50)    
Moisture  
Dew Point 63 °F    
Average Humidity 86    
Maximum Humidity 93    
Minimum Humidity 78    
Precipitation  
Precipitation 0.17 in 0.16 in 4.82 in (1975)
Month to date precipitation 3.65 1.44  
Year to date precipitation 15.13 19.47  
Snow  
Snow 0.00 in - - ()
Month to date snowfall 0.0  
Since 1 June snowfall 0.0  
Since 1 July snowfall 32.2  
Snow Depth 0.00 in    
Sea Level Pressure  
Sea Level Pressure 29.76 in    
Wind  
Wind Speed 10 mph (SE)    
Max Wind Speed 18 mph    
Max Gust Speed 24 mph    
Visibility 9 miles    
Events Rain , Thunderstorm    
T = Trace of Precipitation, MM = Missing Value Source: NWS Daily Summary

Daily Weather History Graph

Daily Weather History Graph

Search for Another Location

Airport or City:

Trip Planner

Search our weather history database for the weather conditions in past years. The results will help you decide how hot, cold, wet, or windy it might be!

Date:

Astronomy

Jun. 09, 2014 Rise Set
Actual Time 5:52 AM CDT 8:32 PM CDT
Civil Twilight 5:22 AM CDT 9:03 PM CDT
Nautical Twilight 4:43 AM CDT 9:42 PM CDT
Astronomical Twilight 4:00 AM CDT 10:25 PM CDT
Moon 4:58 PM CDT (6/9) 3:15 AM CDT (6/9)
Length of Visible Light 15h 41m
Length of Day
14h 40m
Waxing Gibbous, 85% of the Moon is Illuminated
Jun 9
Waxing Gibbous
Jun 12
Full
Jun 19
Last Quarter
Jun 27
New
Jul 5
First Quarter

Hourly Weather History & Observations

Time (CDT) Temp. Dew Point Humidity Pressure Visibility Wind Dir Wind Speed Gust Speed Precip Events Conditions
12:52 AM 64.0 °F 61.0 °F 90% 29.91 in 10.0 mi East 4.6 mph - N/A   Overcast
1:18 AM 64.0 °F 61.0 °F 90% 29.93 in 10.0 mi ENE 4.6 mph - N/A   Overcast
1:52 AM 64.0 °F 62.1 °F 93% 29.89 in 10.0 mi East 4.6 mph - N/A   Overcast
2:06 AM 64.0 °F 62.1 °F 93% 29.91 in 10.0 mi East 4.6 mph - N/A   Overcast
2:38 AM 64.0 °F 60.1 °F 87% 29.91 in 10.0 mi East 6.9 mph - N/A   Overcast
2:52 AM 64.0 °F 60.1 °F 87% 29.88 in 10.0 mi East 5.8 mph - N/A   Overcast
3:52 AM 64.0 °F 57.9 °F 80% 29.85 in 10.0 mi ESE 12.7 mph - N/A   Overcast
4:52 AM 64.0 °F 59.0 °F 84% 29.83 in 10.0 mi ESE 11.5 mph - N/A   Overcast
5:52 AM 64.0 °F 57.9 °F 80% 29.83 in 10.0 mi ESE 11.5 mph - N/A   Overcast
6:18 AM 64.0 °F 57.9 °F 80% 29.86 in 10.0 mi SE 12.7 mph - N/A   Overcast
6:52 AM 64.0 °F 60.1 °F 87% 29.81 in 10.0 mi ESE 13.8 mph - N/A   Overcast
7:35 AM 64.0 °F 60.1 °F 87% 29.84 in 10.0 mi ESE 15.0 mph - N/A   Overcast
7:52 AM 64.0 °F 61.0 °F 90% 29.81 in 10.0 mi SE 17.3 mph 24.2 mph N/A   Overcast
8:07 AM 64.9 °F 61.0 °F 87% 29.84 in 10.0 mi ESE 13.8 mph - N/A   Overcast
8:14 AM 64.9 °F 61.0 °F 87% 29.83 in 10.0 mi ESE 11.5 mph - N/A   Overcast
8:44 AM 64.9 °F 61.0 °F 87% 29.84 in 10.0 mi ESE 15.0 mph - N/A   Overcast
8:52 AM 64.9 °F 61.0 °F 87% 29.81 in 10.0 mi ESE 16.1 mph - N/A   Overcast
9:52 AM 66.2 °F 60.8 °F 83% 29.82 in 10.0 mi ESE 10.4 mph 21.9 mph N/A   Overcast
10:04 AM 66.0 °F 61.0 °F 84% 29.82 in 10.0 mi SE 12.7 mph - N/A   Overcast
10:52 AM 66.9 °F 62.1 °F 84% 29.79 in 10.0 mi SE 13.8 mph 20.7 mph N/A   Overcast
11:52 AM 66.9 °F 63.0 °F 87% 29.78 in 10.0 mi ESE 11.5 mph 20.7 mph N/A   Overcast
1:11 PM 66.0 °F 64.0 °F 93% 29.77 in 4.0 mi SE 12.7 mph - 0.00 in Rain Light Rain
1:52 PM 66.9 °F 64.0 °F 90% 29.73 in 10.0 mi SE 12.7 mph 20.7 mph 0.00 in   Overcast
2:52 PM 68.0 °F 64.9 °F 90% 29.71 in 10.0 mi SE 10.4 mph - 0.00 in   Overcast
3:14 PM 69.1 °F 64.9 °F 87% 29.72 in 10.0 mi SE 13.8 mph - 0.01 in Rain Light Rain
3:52 PM 69.1 °F 64.9 °F 87% 29.69 in 10.0 mi SE 11.5 mph - 0.01 in   Overcast
4:07 PM 69.1 °F 64.9 °F 87% 29.70 in 10.0 mi SE 11.5 mph - N/A   Overcast
4:30 PM 69.1 °F 64.9 °F 87% 29.70 in 7.0 mi SE 9.2 mph - 0.00 in Rain Light Rain
4:52 PM 68.0 °F 64.9 °F 90% 29.68 in 5.0 mi ESE 8.1 mph - 0.00 in Rain Light Rain
4:57 PM 68.0 °F 64.9 °F 90% 29.70 in 2.5 mi SE 9.2 mph - 0.00 in Rain Light Rain
5:22 PM 68.0 °F 66.0 °F 93% 29.69 in 2.5 mi East 5.8 mph - 0.04 in Rain Rain
5:35 PM 68.0 °F 66.0 °F 93% 29.69 in 5.0 mi ESE 6.9 mph - 0.05 in Rain Light Rain
5:49 PM 68.0 °F 66.2 °F 94% 29.69 in 3.0 mi ESE 9.2 mph - 0.05 in Rain Light Rain
5:52 PM 68.0 °F 66.0 °F 93% 29.67 in 2.5 mi ESE 9.2 mph - 0.06 in Rain Light Rain
5:56 PM 68.0 °F 66.0 °F 93% 29.69 in 3.0 mi ESE 8.1 mph - 0.00 in Rain Light Rain
6:10 PM 68.0 °F 66.0 °F 93% 29.69 in 10.0 mi ESE 10.4 mph - 0.00 in Rain Light Rain
6:32 PM 69.1 °F 66.0 °F 90% 29.68 in 7.0 mi ESE 11.5 mph - 0.00 in Rain Light Rain
6:52 PM 69.1 °F 66.0 °F 90% 29.66 in 10.0 mi SE 10.4 mph - 0.00 in   Overcast
7:25 PM 69.1 °F 66.0 °F 90% 29.69 in 6.0 mi SSE 6.9 mph - 0.01 in Rain Light Rain
7:43 PM 69.1 °F 66.0 °F 90% 29.69 in 6.0 mi South 10.4 mph - 0.03 in Rain Light Rain
7:52 PM 69.1 °F 66.0 °F 90% 29.66 in 10.0 mi South 5.8 mph - 0.03 in Rain Light Rain
8:08 PM 69.1 °F 66.0 °F 90% 29.69 in 10.0 mi South 5.8 mph - 0.00 in   Overcast
8:18 PM 69.1 °F 66.0 °F 90% 29.68 in 10.0 mi South 5.8 mph - 0.00 in   Overcast
8:29 PM 68.0 °F 66.0 °F 93% 29.68 in 10.0 mi South 5.8 mph - 0.00 in   Overcast
8:35 PM 68.0 °F 66.0 °F 93% 29.68 in 10.0 mi South 4.6 mph - 0.00 in   Overcast
8:52 PM 66.9 °F 64.9 °F 93% 29.67 in 10.0 mi South 4.6 mph - 0.00 in   Mostly Cloudy
9:52 PM 66.9 °F 64.9 °F 93% 29.67 in 10.0 mi South 3.5 mph - N/A   Mostly Cloudy
10:07 PM 66.9 °F 64.9 °F 93% 29.70 in 10.0 mi South 4.6 mph - N/A Thunderstorm Mostly Cloudy
10:14 PM 66.9 °F 66.0 °F 97% 29.71 in 10.0 mi SW 5.8 mph - N/A Thunderstorm Thunderstorm
10:50 PM 62.6 °F 60.8 °F 94% 29.73 in 10.0 mi South 6.9 mph - 0.02 in Rain , Thunderstorm Light Rain
10:52 PM 63.0 °F 60.1 °F 90% 29.71 in 10.0 mi South 9.2 mph - 0.02 in Rain , Thunderstorm Light Rain
11:04 PM 63.0 °F 60.1 °F 90% 29.73 in 10.0 mi South 11.5 mph - 0.00 in Rain Light Rain
11:52 PM 62.1 °F 60.1 °F 93% 29.67 in 10.0 mi SSE 5.8 mph - 0.01 in   Mostly Cloudy